Location: Betpouey
(42.8833°N, 0.0333°E)
Time: 20:51:00
(UTC+00:00)

IRS-1C Rocket - Pass Details

Date: 01 December 2020
Orbit: 800 x 806 km, 99.0° (Epoch: 19 January)

Event Time Altitude Azimuth Distance (km) Brightness Sun altitude
Rises 17:37:08 0° 145° (SE) 3,309 7.1 -12.6°
Reaches altitude 10° 17:39:33 10° 138° (SE) 2,382 6.3 -13.1°
Maximum altitude 17:44:30 43° 68° (ENE) 1,125 4.4 -13.9°
Drops below altitude 10° 17:49:28 10° 359° (N) 2,396 6.4 -14.8°
Sets 17:51:54 0° 353° (N) 3,331 7.2 -15.2°
